Location: Foligno
(42.9600°N, 12.7050°E)
Time: 02:24:59
(UTC+02:00)

ISS - Pass Details

Date: 18 May 2018
Orbit: 402 x 407 km, 51.6° (Epoch: 26 May)

Event Time Altitude Azimuth Distance (km) Brightness Sun altitude
Exits shadow 01:48:18 20° 348° (NNW) 989 -1.2 -26.8°
Maximum altitude 01:48:19 20° 349° (NNW) 989 -1.2 -26.8°
Drops below altitude 10° 01:50:50 10° 39° (NE) 1,458 -0.2 -26.7°
Sets 01:53:17 0° 57° (ENE) 2,318 0.7 -26.6°
